Weather History for Hobart, OK

Change the Weather History Date:

Sunday, July 7, 2013

  Actual Average Record
Temperature  
Mean Temperature 88 °F -  
Max Temperature 100 °F 93 °F 109 °F (2011)
Min Temperature 75 °F 68 °F 64 °F (1997)
Cooling Degree Days 22    
Growing Degree Days 38 (Base 50)    
Moisture  
Dew Point 57 °F    
Average Humidity 37    
Maximum Humidity 56    
Minimum Humidity 22    
Precipitation  
Precipitation 0.00 in - - ()
Sea Level Pressure  
Sea Level Pressure 29.91 in    
Wind  
Wind Speed 14 mph (South)    
Max Wind Speed 18 mph    
Max Gust Speed 30 mph    
Visibility 10 miles    
Events      
Averages and records for this station are not official NWS values.
T = Trace of Precipitation, MM = Missing Value Source: NWS Daily Summary

Daily Weather History Graph

Daily Weather History Graph

Search for Another Location

Airport:

Trip Planner

Search our weather history database for the weather conditions in past years. The results will help you decide how hot, cold, wet, or windy it might be!

Date:

Astronomy

Jul. 07, 2013 Rise Set
Actual Time 6:29 AM CDT 8:53 PM CDT
Civil Twilight 5:59 AM CDT 9:22 PM CDT
Nautical Twilight 5:23 AM CDT 9:58 PM CDT
Astronomical Twilight 4:43 AM CDT 10:38 PM CDT
Moon 6:04 AM CDT (7/7) 8:21 PM CDT (7/7)
Length of Visible Light 15h 22m
Length of Day
14h 24m
Waning Crescent, 0% of the Moon is Illuminated
Jul 7
Waning Crescent
Jul 8
New
Jul 15
First Quarter
Jul 22
Full
Jul 29
Last Quarter

Hourly Weather History & Observations

Time (CDT) Temp. Heat Index Dew Point Humidity Pressure Visibility Wind Dir Wind Speed Gust Speed Precip Events Conditions
12:53 AM 81.0 °F 80.8 °F 55.9 °F 42% 29.89 in 10.0 mi SSE 13.8 mph - N/A   Clear
1:53 AM 81.0 °F 81.1 °F 57.9 °F 45% 29.88 in 10.0 mi SSE 16.1 mph - N/A   Clear
2:53 AM 81.0 °F 81.0 °F 57.0 °F 44% 29.88 in 10.0 mi SSE 15.0 mph - N/A   Clear
3:53 AM 79.0 °F - 57.9 °F 48% 29.87 in 10.0 mi South 15.0 mph - N/A   Clear
4:53 AM 78.1 °F - 57.9 °F 50% 29.87 in 10.0 mi South 16.1 mph - N/A   Clear
5:53 AM 75.9 °F - 57.9 °F 54% 29.89 in 10.0 mi South 10.4 mph - N/A   Clear
6:53 AM 75.0 °F - 57.9 °F 55% 29.92 in 10.0 mi South 8.1 mph - N/A   Clear
7:53 AM 75.9 °F - 59.0 °F 56% 29.93 in 10.0 mi South 15.0 mph - N/A   Clear
8:53 AM 79.0 °F - 60.1 °F 52% 29.94 in 10.0 mi South 17.3 mph - N/A   Clear
9:53 AM 86.0 °F 85.7 °F 60.1 °F 41% 29.95 in 10.0 mi South 17.3 mph - N/A   Clear
10:53 AM 91.0 °F 90.5 °F 60.1 °F 35% 29.94 in 10.0 mi South 16.1 mph 24.2 mph N/A   Clear
11:53 AM 93.0 °F 91.7 °F 57.0 °F 30% 29.94 in 10.0 mi SSW 12.7 mph 20.7 mph N/A   Clear
12:53 PM 96.1 °F 94.5 °F 55.9 °F 26% 29.93 in 10.0 mi SSW 10.4 mph 26.5 mph N/A   Clear
1:53 PM 98.1 °F 96.4 °F 55.0 °F 24% 29.92 in 10.0 mi South 15.0 mph 20.7 mph N/A   Clear
2:53 PM 98.1 °F 96.4 °F 55.0 °F 24% 29.90 in 10.0 mi South 17.3 mph 25.3 mph N/A   Clear
3:53 PM 99.0 °F 97.3 °F 55.0 °F 23% 29.89 in 10.0 mi South 15.0 mph 24.2 mph N/A   Clear
4:53 PM 100.0 °F 98.8 °F 55.9 °F 23% 29.88 in 10.0 mi SSW 13.8 mph 21.9 mph N/A   Clear
5:53 PM 100.0 °F 98.3 °F 55.0 °F 22% 29.87 in 10.0 mi SSE 12.7 mph 23.0 mph N/A   Partly Cloudy
6:53 PM 96.1 °F 94.5 °F 55.9 °F 26% 29.87 in 10.0 mi SE 18.4 mph 29.9 mph N/A   Clear
7:53 PM 93.0 °F 90.8 °F 54.0 °F 27% 29.88 in 10.0 mi SSE 18.4 mph - N/A   Clear
8:53 PM 89.1 °F 87.1 °F 55.0 °F 31% 29.91 in 10.0 mi SSE 15.0 mph - N/A   Clear
9:53 PM 84.9 °F 83.7 °F 55.9 °F 37% 29.93 in 10.0 mi SSE 11.5 mph - N/A   Clear
10:53 PM 84.0 °F 83.0 °F 55.9 °F 38% 29.94 in 10.0 mi SSE 15.0 mph - N/A   Clear
11:53 PM 82.9 °F 82.1 °F 55.9 °F 39% 29.94 in 10.0 mi SSE 15.0 mph - N/A   Clear